1506546001.21,62763,17.25,74754.5,-1.67,-29.51,-28.75,0,*51
1506546002.41,62764,17.25,74752.3,-1.67,-29.79,-29.07,0,*58
1506546003.66,62765,17.25,74754.3,-1.69,-29.79,-29.17,0,*56
1506546004.93,62766,17.25,74748.5,-1.69,-29.67,-29.01,0,*5D
1506546006.19,62767,17.25,74754.3,-1.69,-29.67,-29.01,0,*5C
1506546007.41,62768,17.25,74754.0,-1.69,-29.79,-29.07,0,*5A
1506546008.7,62769,17.25,74754.8,-1.69,-29.73,-29.01,0,*57
1506546009.92,62770,17.25,74752.8,-1.69,-29.79,-29.07,0,*53
1506546011.13,62771,17.25,74754.3,-1.71,-29.83,-29.23,0,*58
1506546012.41,62772,17.25,74750.8,-1.69,-29.89,-29.13,0,*5B
1506546013.64,62773,17.25,74752.0,-1.69,-29.79,-29.07,0,*50
1506546014.87,62774,17.25,74750.0,-1.71,-29.83,-29.29,0,*57
1506546016.1,62775,17.25,74752.3,-1.71,-29.83,-29.13,0,*5F
1506546017.33,62776,17.25,74754.0,-1.71,-29.73,-29.07,0,*56
1506546018.59,62777,17.25,74752.8,-1.69,-29.79,-29.17,0,*55
1506546019.82,62778,17.25,74752.0,-1.71,-29.73,-28.97,0,*50
1506546021.05,62779,17.25,74750.3,-1.71,-29.73,-28.97,0,*51
1506546022.3,62780,17.25,74752.0,-1.69,-29.73,-29.07,0,*56
1506546023.55,62781,17.25,74754.0,-1.71,-29.73,-29.13,0,*5B
1506546024.78,62782,17.25,74752.3,-1.71,-29.73,-28.97,0,*55
1506546025.98,62783,17.25,74754.0,-1.71,-29.79,-29.07,0,*56
1506546027.21,62784,17.25,74750.8,-1.71,-29.95,-29.13,0,*56
1506546028.47,62785,17.25,74750.8,-1.69,-29.67,-29.01,0,*50
1506546029.68,62786,17.25,74752.0,-1.71,-29.61,-29.07,0,*5A
1506546030.89,62787,17.25,74752.8,-1.71,-29.83,-29.07,0,*57
1506546032.14,62788,17.25,74750.5,-1.71,-30.01,-29.29,0,*56
1506546033.35,62789,17.25,74754.5,-1.71,-29.79,-28.97,0,*54
1506546034.58,62790,17.25,74752.8,-1.71,-29.45,-28.79,0,*53
1506546035.84,62791,17.25,74754.3,-1.73,-29.45,-28.91,0,*56
1506546037.1,62792,17.25,74752.5,-1.73,-29.61,-28.79,0,*55
1506546038.35,62793,17.19,74748.0,-1.73,-29.73,-28.97,0,*57
1506546039.6,62794,17.25,74750.8,-1.73,-29.83,-29.13,0,*52
1506546040.85,62795,17.25,74754.8,-1.73,-30.01,-29.23,0,*52
1506546042.1,62796,17.25,74754.5,-1.73,-29.61,-28.91,0,*57
1506546043.36,62797,17.25,74752.5,-1.73,-29.45,-28.75,0,*5A
1506546044.62,62798,17.25,74752.8,-1.73,-29.57,-28.75,0,*56
1506546045.83,62799,17.25,74752.0,-1.75,-29.67,-28.85,0,*5D
1506546047.09,62800,17.25,74752.8,-1.73,-29.57,-28.75,0,*58
1506546048.34,62801,17.25,74752.5,-1.73,-29.57,-28.79,0,*55
1506546049.58,62802,17.25,74750.3,-1.71,-29.83,-29.13,0,*50
1506546050.83,62803,17.25,74752.3,-1.73,-29.73,-28.97,0,*51
1506546052.08,62804,17.25,74752.3,-1.73,-29.83,-29.13,0,*54
1506546053.33,62805,17.25,74754.0,-1.73,-30.01,-29.23,0,*54
1506546054.6,62806,17.25,74754.5,-1.73,-30.01,-29.29,0,*5D
1506546055.86,62807,17.25,74754.5,-1.75,-30.17,-29.35,0,*50
1506546057.11,62808,17.25,74750.8,-1.73,-30.11,-29.29,0,*52
1506546058.36,62809,17.25,74754.3,-1.75,-30.01,-29.13,0,*5D
1506546059.59,62810,17.25,74750.8,-1.73,-29.95,-29.07,0,*53
1506546060.84,62811,17.25,74752.0,-1.75,-30.01,-29.29,0,*5D
1506546062.09,62812,17.25,74754.3,-1.75,-30.01,-29.13,0,*57
1506546063.34,62813,17.25,74750.8,-1.75,-30.05,-29.29,0,*5B
1506546064.6,62814,17.25,74752.8,-1.75,-30.17,-29.35,0,*52
1506546065.85,62815,17.25,74754.0,-1.75,-30.01,-29.17,0,*54
1506546067.11,62816,17.25,74752.5,-1.73,-29.61,-28.91,0,*50
1506546068.34,62817,17.25,74754.5,-1.75,-29.83,-29.13,0,*50
1506546069.61,62818,17.25,74754.3,-1.75,-29.89,-29.01,0,*56
1506546070.86,62819,17.25,74754.8,-1.75,-29.89,-29.13,0,*54
1506546072.1,62820,17.25,74750.3,-1.73,-29.83,-28.97,0,*5F
1506546073.34,62821,17.25,74750.3,-1.73,-30.01,-29.23,0,*52
1506546074.59,62822,17.25,74754.3,-1.75,-30.01,-29.29,0,*5D
1506546075.87,62823,17.25,74750.0,-1.77,-30.01,-29.13,0,*57
1506546077.11,62824,17.25,74754.8,-1.75,-29.83,-29.01,0,*53
1506546078.36,62825,17.25,74750.0,-1.75,-30.01,-29.29,0,*5A
1506546079.59,62826,17.25,74754.0,-1.75,-29.79,-29.01,0,*54
1506546080.83,62827,17.25,74750.8,-1.75,-29.89,-28.97,0,*54
1506546082.04,62828,17.25,74750.8,-1.75,-29.83,-28.97,0,*51
1506546083.26,62829,17.25,74752.3,-1.75,-29.61,-28.85,0,*5F
1506546084.46,62830,17.25,74754.8,-1.75,-29.79,-28.97,0,*5D
1506546085.72,62831,17.25,74752.3,-1.75,-30.01,-29.01,0,*55
1506546086.97,62832,17.25,74752.3,-1.75,-30.01,-29.29,0,*5C
1506546088.25,62833,17.25,74748.5,-1.77,-30.17,-29.13,0,*51
1506546089.51,62834,17.25,74750.3,-1.77,-29.89,-28.97,0,*54
1506546090.79,62835,17.25,74752.3,-1.77,-30.01,-29.13,0,*50
1506546092.07,62836,17.25,74752.3,-1.77,-29.89,-29.13,0,*5B
1506546093.33,62837,17.25,74754.8,-1.75,-29.89,-29.13,0,*58
1506546094.58,62838,17.25,74748.3,-1.75,-30.05,-29.17,0,*5F
1506546095.86,62839,17.25,74752.3,-1.77,-30.05,-29.29,0,*51
1506546097.13,62840,17.25,74752.3,-1.77,-30.01,-29.13,0,*52
1506546098.33,62841,17.25,74754.8,-1.81,-30.11,-29.23,0,*58
1506546099.61,62842,17.25,74750.5,-1.77,-30.01,-29.17,0,*54
1506546100.85,62843,17.25,74752.5,-1.77,-29.83,-28.97,0,*5E
1506546102.09,62844,17.25,74754.5,-1.81,-30.01,-29.13,0,*5F
1506546103.36,62845,17.25,74754.0,-1.77,-29.83,-29.01,0,*56
1506546104.6,62846,17.25,74752.0,-1.81,-30.01,-29.13,0,*5D
1506546105.89,62847,17.25,74750.0,-1.77,-30.17,-29.17,0,*56
1506546107.11,62848,17.25,74754.5,-1.81,-30.27,-29.39,0,*5F
1506546108.39,62849,17.25,74748.8,-1.77,-30.17,-29.29,0,*55
1506546109.67,62850,17.25,74752.3,-1.77,-30.01,-29.17,0,*57
1506546110.92,62851,17.25,74752.5,-1.77,-30.23,-29.29,0,*5B
1506546112.16,62852,17.25,74752.5,-1.77,-30.23,-29.45,0,*52
1506546113.36,62853,17.25,74752.5,-1.81,-30.33,-29.45,0,*5B
1506546114.6,62854,17.25,74754.3,-1.77,-29.95,-28.97,0,*5F
1506546115.85,62855,17.25,74754.0,-1.81,-29.89,-29.13,0,*57
1506546117.13,62856,17.25,74754.3,-1.77,-30.17,-29.13,0,*52
1506546118.34,62857,17.25,74754.3,-1.81,-30.27,-29.45,0,*5A
1506546119.53,62858,17.25,74750.8,-1.81,-30.11,-29.23,0,*50
1506546120.78,62859,17.25,74750.0,-1.81,-30.17,-29.29,0,*5D
1506546122.0,62860,17.25,74754.0,-1.81,-30.27,-29.29,0,*54
1506546123.21,62861,17.25,74752.5,-1.81,-30.33,-29.57,0,*59
1506546124.46,62862,17.25,74754.8,-1.83,-30.27,-29.39,0,*55
1506546125.69,62863,17.25,74750.0,-1.83,-29.95,-29.23,0,*5E
1506546126.93,62864,17.25,74752.3,-1.83,-29.95,-29.07,0,*5F
1506546128.18,62865,17.25,74752.5,-1.83,-29.89,-29.07,0,*53
1506546129.4,62866,17.25,74748.5,-1.85,-30.11,-29.29,0,*53
1506546130.68,62867,17.25,74750.0,-1.83,-30.01,-29.13,0,*5C
1506546131.9,62868,17.25,74752.8,-1.83,-30.11,-29.23,0,*51
1506546133.18,62869,17.25,74754.0,-1.83,-30.17,-29.29,0,*5C
1506546134.4,62870,17.25,74752.8,-1.85,-30.33,-29.29,0,*54
1506546135.64,62871,17.25,74754.0,-1.85,-30.01,-29.13,0,*5D
1506546136.91,62872,17.19,74748.8,-1.83,-30.01,-29.13,0,*58
1506546138.17,62873,17.25,74754.8,-1.83,-30.17,-29.23,0,*5D
1506546139.41,62874,17.25,74754.0,-1.85,-30.05,-29.17,0,*58
1506546140.67,62875,17.25,74754.5,-1.83,-30.27,-29.29,0,*52
1506546141.94,62876,17.25,74750.0,-1.83,-30.17,-29.29,0,*52
1506546143.14,62877,17.25,74750.0,-1.85,-30.33,-29.23,0,*59
1506546144.37,62878,17.25,74752.3,-1.83,-29.95,-29.07,0,*52
1506546145.64,62879,17.25,74748.8,-1.83,-30.01,-29.13,0,*53
1506546146.92,62880,17.25,74750.5,-1.83,-30.01,-29.13,0,*55
1506546148.16,62881,17.19,74750.5,-1.85,-30.05,-29.17,0,*52
1506546149.42,62882,17.25,74754.0,-1.83,-30.27,-29.29,0,*5A
1506546150.67,62883,17.25,74752.5,-1.83,-30.17,-29.23,0,*52
1506546151.92,62884,17.25,74754.0,-1.83,-30.27,-29.29,0,*5C
1506546153.15,62885,17.25,74750.8,-1.83,-30.33,-29.57,0,*51
1506546154.37,62886,17.19,74748.3,-1.85,-30.23,-29.29,0,*5C
1506546155.6,62887,17.25,74754.8,-1.85,-30.33,-29.35,0,*51
1506546156.8,62888,17.25,74752.5,-1.85,-30.33,-29.45,0,*59
1506546158.04,62889,17.25,74754.3,-1.85,-30.39,-29.29,0,*58
1506546159.29,62890,17.25,74750.8,-1.85,-30.39,-29.35,0,*5D
1506546160.52,62891,17.25,74752.0,-1.83,-30.27,-29.23,0,*52
1506546161.71,62892,17.25,74748.8,-1.89,-30.23,-29.23,0,*5F
1506546162.99,62893,17.25,74750.3,-1.87,-30.17,-29.17,0,*50
1506546164.23,62894,17.25,74748.5,-1.87,-30.23,-29.29,0,*5D
1506546165.46,62895,17.25,74750.0,-1.89,-30.27,-29.35,0,*5B
1506546166.73,62896,17.25,74750.3,-1.87,-30.05,-29.17,0,*56
1506546167.97,62897,17.25,74754.0,-1.85,-30.05,-29.13,0,*51
1506546169.24,62898,17.25,74750.8,-1.87,-30.05,-29.13,0,*5C
1506546170.46,62899,17.25,74750.5,-1.89,-30.05,-29.07,0,*56
1506546171.73,62900,17.25,74750.0,-1.87,-30.05,-29.13,0,*5C
1506546172.98,62901,17.19,74748.0,-1.87,-30.33,-29.35,0,*5C
1506546174.25,62902,17.25,74750.0,-1.87,-30.39,-29.35,0,*55
1506546175.49,62903,17.25,74752.5,-1.87,-30.23,-29.29,0,*52
1506546176.72,62904,17.25,74752.0,-1.89,-30.23,-29.35,0,*56
1506546177.99,62905,17.25,74752.5,-1.87,-30.01,-29.17,0,*59
1506546179.23,62906,17.25,74752.8,-1.87,-30.23,-29.13,0,*5E
1506546180.48,62907,17.25,74752.3,-1.87,-30.33,-29.35,0,*5A
1506546181.73,62908,17.25,74752.5,-1.87,-30.39,-29.45,0,*58
1506546182.97,62909,17.25,74752.0,-1.89,-30.39,-29.39,0,*5C
1506546184.22,62910,17.25,74750.3,-1.89,-30.39,-29.35,0,*58
1506546185.47,62911,17.19,74748.8,-1.89,-30.39,-29.39,0,*55
1506546186.72,62912,17.25,74748.0,-1.89,-30.39,-29.35,0,*5A
1506546187.96,62913,17.25,74752.8,-1.87,-30.23,-29.29,0,*53
1506546189.16,62914,17.25,74754.0,-1.89,-30.27,-29.23,0,*54
1506546190.4,62915,17.25,74754.5,-1.87,-30.33,-29.29,0,*54
1506546191.63,62916,17.25,74750.8,-1.89,-30.45,-29.35,0,*55
1506546192.84,62917,17.25,74748.5,-1.89,-30.45,-29.39,0,*58
1506546194.1,62918,17.25,74750.8,-1.91,-30.51,-29.45,0,*50
1506546195.35,62919,17.25,74750.3,-1.91,-30.51,-29.45,0,*51
1506546196.6,62920,17.25,74754.3,-1.91,-30.33,-29.29,0,*55
1506546197.82,62921,17.25,74750.0,-1.91,-30.27,-29.23,0,*5B
1506546199.02,62922,17.19,74748.5,-1.89,-30.23,-29.23,0,*55
1506546200.25,62923,17.25,74752.0,-1.89,-30.27,-29.35,0,*57
1506546201.5,62924,17.25,74752.0,-1.89,-30.39,-29.35,0,*5F
1506546202.73,62925,17.25,74754.8,-1.89,-30.27,-29.39,0,*5D
1506546203.98,62926,17.25,74754.5,-1.89,-30.39,-29.35,0,*5D
1506546205.23,62927,17.19,74748.8,-1.89,-30.39,-29.35,0,*5C
1506546206.5,62928,17.25,74754.0,-1.91,-30.51,-29.39,0,*58
1506546207.75,62929,17.25,74752.0,-1.91,-30.33,-29.39,0,*5D
1506546209.0,62930,17.25,74754.3,-1.91,-30.45,-29.39,0,*54
1506546210.25,62931,17.25,74754.8,-1.91,-30.45,-29.39,0,*55
1506546211.49,62932,17.19,74750.5,-1.89,-30.39,-29.39,0,*54
1506546212.76,62933,17.25,74750.5,-1.91,-30.17,-29.13,0,*58
1506546214.02,62934,17.25,74752.0,-1.91,-30.17,-29.23,0,*5C
1506546215.26,62935,17.25,74752.5,-1.91,-30.33,-29.29,0,*51
1506546216.51,62936,17.19,74750.8,-1.91,-30.27,-29.29,0,*57
1506546217.74,62937,17.25,74754.0,-1.93,-30.27,-29.13,0,*5D
1506546218.99,62938,17.25,74752.8,-1.91,-30.27,-29.29,0,*59
1506546220.23,62939,17.25,74752.3,-1.93,-30.51,-29.39,0,*5A
1506546221.46,62940,17.19,74748.8,-1.91,-30.11,-29.07,0,*5F
1506546222.72,62941,17.25,74752.0,-1.91,-29.95,-28.91,0,*54
1506546223.99,62942,17.19,74748.8,-1.91,-30.05,-28.91,0,*56
1506546225.25,62943,17.19,74748.8,-1.91,-30.17,-29.07,0,*5A
1506546226.49,62944,17.19,74748.0,-1.91,-30.33,-29.29,0,*57
1506546227.76,62945,17.19,74748.5,-1.91,-30.51,-29.29,0,*52
1506546229.01,62946,17.25,74752.3,-1.93,-30.61,-29.39,0,*51
1506546230.25,62947,17.25,74752.0,-1.91,-30.33,-29.29,0,*54
1506546231.47,62948,17.19,74748.8,-1.91,-30.45,-29.23,0,*50
1506546232.74,62949,17.25,74752.0,-1.91,-30.51,-29.29,0,*5E
1506546233.99,62950,17.25,74752.0,-1.91,-30.45,-29.39,0,*52
1506546235.22,62951,17.25,74754.8,-1.91,-30.27,-29.07,0,*5A
1506546236.46,62952,17.25,74752.5,-1.91,-30.11,-29.13,0,*59
1506546237.66,62953,17.19,74748.8,-1.89,-30.45,-29.23,0,*53
1506546238.9,62954,17.25,74752.5,-1.89,-30.39,-29.17,0,*58
1506546240.12,62955,17.25,74748.3,-1.91,-30.33,-29.23,0,*5D
1506546241.39,62956,17.19,74748.8,-1.91,-30.51,-29.29,0,*50
1506546242.63,62957,17.19,74748.3,-1.91,-30.45,-29.29,0,*54
1506546243.9,62958,17.19,74750.5,-1.91,-30.61,-29.29,0,*5D
1506546245.16,62959,17.25,74754.5,-1.91,-30.61,-29.45,0,*56
1506546246.43,62960,17.19,74750.3,-1.91,-30.51,-29.39,0,*54
1506546247.65,62961,17.25,74754.3,-1.93,-30.45,-29.29,0,*53
1506546248.87,62962,17.25,74752.8,-1.91,-30.33,-29.23,0,*59
1506546250.14,62963,17.25,74750.5,-1.91,-30.51,-29.29,0,*56
1506546251.36,62964,17.25,74750.5,-1.91,-30.45,-29.23,0,*5E
1506546252.6,62965,17.19,74748.0,-1.91,-30.45,-29.29,0,*55
1506546253.85,62966,17.19,74748.8,-1.93,-30.61,-29.39,0,*53
1506546255.1,62967,17.19,74750.8,-1.91,-30.61,-29.45,0,*5B
1506546256.37,62968,17.19,74748.8,-1.91,-30.51,-29.39,0,*5C
1506546257.61,62969,17.19,74748.0,-1.91,-30.67,-29.45,0,*53
1506546258.85,62970,17.19,74748.5,-1.93,-30.51,-29.39,0,*57
1506546260.08,62971,17.19,74748.5,-1.93,-30.67,-29.39,0,*53
1506546261.32,62972,17.19,74750.8,-1.91,-30.67,-29.45,0,*59
1506546262.59,62973,17.19,74750.5,-1.91,-30.61,-29.39,0,*55
1506546263.86,62974,17.19,74750.5,-1.91,-30.61,-29.39,0,*52
1506546265.09,62975,17.25,74754.5,-1.93,-30.67,-29.39,0,*57
1506546266.35,62976,17.25,74750.5,-1.91,-30.61,-29.57,0,*58
1506546267.55,62977,17.25,74754.8,-1.93,-30.67,-29.45,0,*5E
1506546268.78,62978,17.19,74750.8,-1.93,-30.61,-29.45,0,*57
1506546270.01,62979,17.25,74752.5,-1.91,-30.67,-29.45,0,*52
1506546271.24,62980,17.19,74748.3,-1.93,-30.67,-29.39,0,*5D
1506546272.45,62981,17.19,74748.5,-1.93,-30.67,-29.45,0,*57
1506546273.72,62982,17.19,74748.0,-1.91,-30.61,-29.39,0,*5B
1506546274.97,62983,17.19,74748.8,-1.91,-30.67,-29.39,0,*5C
1506546276.18,62984,17.19,74748.5,-1.93,-30.67,-29.57,0,*51
1506546277.43,62985,17.19,74748.8,-1.93,-30.61,-29.39,0,*5E
1506546278.68,62986,17.19,74748.0,-1.93,-30.61,-29.39,0,*5D
1506546279.92,62987,17.25,74752.8,-1.91,-30.33,-29.13,0,*51
1506546281.15,62988,17.25,74752.3,-1.93,-30.27,-29.13,0,*59
1506546282.35,62989,17.19,74750.0,-1.93,-30.27,-28.97,0,*55
1506546283.57,62990,17.19,74748.0,-1.93,-30.17,-28.97,0,*5E
1506546284.8,62991,17.25,74750.5,-1.93,-30.17,-28.97,0,*5F
1506546286.05,62992,17.25,74752.0,-1.91,-30.17,-29.07,0,*56
1506546287.32,62993,17.25,74748.3,-1.91,-30.17,-29.13,0,*52
1506546288.54,62994,17.25,74752.8,-1.93,-30.45,-29.29,0,*59
1506546289.79,62995,17.19,74750.3,-1.93,-30.61,-29.39,0,*5F
1506546291.04,62996,17.25,74752.0,-1.91,-30.67,-29.39,0,*58
1506546292.31,62997,17.25,74750.3,-1.91,-30.51,-29.29,0,*5D
1506546293.5,62998,17.25,74754.0,-1.93,-30.45,-29.23,0,*5F
1506546294.7,62999,17.25,74750.8,-1.93,-30.27,-29.07,0,*5C
1506546295.92,63000,17.19,74748.8,-1.93,-30.33,-29.13,0,*54
1506546297.16,63001,17.25,74752.0,-1.91,-30.67,-29.45,0,*55
1506546298.41,63002,17.19,74750.0,-1.91,-30.61,-29.45,0,*50
1506546299.64,63003,17.19,74748.8,-1.91,-30.67,-29.45,0,*57
1506546300.89,63004,17.25,74750.0,-1.93,-30.61,-29.39,0,*5F
1506546302.11,63005,17.19,74750.5,-1.91,-30.45,-29.23,0,*51
1506546303.3,63006,17.19,74750.8,-1.93,-30.45,-29.23,0,*50
1506546304.55,63007,17.19,74748.5,-1.91,-30.27,-29.13,0,*54
1506546305.77,63008,17.19,74750.3,-1.91,-30.33,-29.07,0,*5B
1506546307.04,63009,17.19,74748.0,-1.91,-30.61,-29.29,0,*51
1506546308.32,63010,17.19,74750.0,-1.91,-30.61,-29.39,0,*58
1506546309.59,63011,17.19,74748.8,-1.91,-30.61,-29.39,0,*59
1506546310.82,63012,17.19,74748.3,-1.91,-30.67,-29.45,0,*57
1506546312.07,63013,17.25,74752.0,-1.89,-30.61,-29.39,0,*52
1506546313.35,63014,17.19,74750.8,-1.91,-30.51,-29.39,0,*5F
1506546314.59,63015,17.25,74750.8,-1.91,-30.33,-29.13,0,*52
1506546315.86,63016,17.25,74752.5,-1.91,-30.17,-29.13,0,*57
1506546317.14,63017,17.19,74748.3,-1.91,-30.61,-29.29,0,*5E
1506546318.39,63018,17.19,74750.3,-1.91,-30.67,-29.39,0,*56
1506546319.65,63019,17.25,74750.3,-1.91,-30.77,-29.45,0,*5D
1506546320.92,63020,17.25,74752.0,-1.91,-30.61,-29.39,0,*5B
1506546322.19,63021,17.19,74748.0,-1.91,-30.61,-29.29,0,*5B
1506546323.45,63022,17.19,74750.5,-1.91,-30.77,-29.57,0,*56
1506546324.71,63023,17.25,74752.0,-1.89,-30.73,-29.51,0,*5C
1506546325.95,63024,17.19,74750.3,-1.91,-30.61,-29.23,0,*54
1506546327.19,63025,17.19,74750.8,-1.91,-30.67,-29.45,0,*53
1506546328.44,63026,17.19,74748.3,-1.91,-30.77,-29.57,0,*52
1506546329.69,63027,17.19,74750.0,-1.89,-30.55,-29.39,0,*52
1506546330.95,63028,17.19,74750.5,-1.91,-30.77,-29.57,0,*5C
1506546332.18,63029,17.19,74748.3,-1.91,-30.83,-29.61,0,*53
1506546333.43,63030,17.19,74750.5,-1.91,-30.77,-29.57,0,*55
1506546334.69,63031,17.19,74748.8,-1.91,-30.77,-29.45,0,*57
1506546335.92,63032,17.19,74748.8,-1.91,-30.83,-29.61,0,*59
1506546337.18,63033,17.19,74748.3,-1.91,-30.67,-29.39,0,*5F
1506546338.45,63034,17.19,74748.3,-1.91,-30.61,-29.39,0,*5E
1506546339.73,63035,17.19,74750.0,-1.91,-30.61,-29.39,0,*5F
1506546340.97,63036,17.19,74750.8,-1.89,-30.61,-29.39,0,*55
1506546342.23,63037,17.19,74748.8,-1.91,-30.77,-29.61,0,*57
1506546343.49,63038,17.25,74750.3,-1.89,-30.73,-29.35,0,*54
1506546344.7,63039,17.19,74750.3,-1.89,-30.55,-29.23,0,*56
1506546345.92,63040,17.19,74750.8,-1.89,-30.55,-29.23,0,*58
1506546347.14,63041,17.19,74748.0,-1.89,-30.61,-29.23,0,*5E
1506546348.39,63042,17.19,74750.3,-1.89,-30.73,-29.39,0,*55
1506546349.64,63043,17.19,74750.8,-1.91,-30.77,-29.45,0,*52
1506546350.92,63044,17.19,74748.5,-1.91,-30.77,-29.39,0,*5E
1506546352.16,63045,17.19,74750.3,-1.91,-30.67,-29.57,0,*56
1506546353.44,63046,17.25,74750.3,-1.91,-30.95,-29.73,0,*5E
1506546354.66,63047,17.19,74750.5,-1.91,-31.01,-29.61,0,*50
1506546355.94,63048,17.19,74748.3,-1.91,-30.77,-29.39,0,*52
1506546357.15,63049,17.19,74750.8,-1.93,-30.83,-29.45,0,*51
1506546358.38,63050,17.19,74748.8,-1.93,-30.77,-29.45,0,*52
1506546359.63,63051,17.19,74744.5,-1.91,-30.77,-29.45,0,*51
1506546360.86,63052,17.25,74752.0,-1.89,-30.77,-29.57,0,*58
1506546362.12,63053,17.19,74748.3,-1.91,-30.77,-29.45,0,*53
1506546363.36,63054,17.19,74750.0,-1.91,-30.83,-29.57,0,*5C
1506546364.61,63055,17.19,74750.3,-1.91,-30.77,-29.45,0,*55
1506546365.87,63056,17.25,74752.0,-1.91,-31.11,-29.79,0,*58
1506546367.12,63057,17.19,74748.5,-1.91,-30.67,-29.39,0,*5D
1506546368.38,63058,17.19,74746.0,-1.91,-30.77,-29.45,0,*58
1506546369.64,63059,17.19,74750.8,-1.91,-30.77,-29.57,0,*5A
1506546370.89,63060,17.19,74748.5,-1.91,-30.95,-29.61,0,*59
1506546372.15,63061,17.19,74750.3,-1.91,-31.11,-29.79,0,*5C
1506546373.38,63062,17.25,74750.3,-1.91,-30.83,-29.57,0,*59
1506546374.66,63063,17.19,74748.8,-1.91,-30.77,-29.29,0,*5A
1506546375.91,63064,17.19,74748.3,-1.91,-30.77,-29.45,0,*57
1506546377.18,63065,17.19,74750.5,-1.91,-30.61,-29.29,0,*5B
1506546378.41,63066,17.19,74752.8,-1.93,-30.95,-29.79,0,*54
1506546379.64,63067,17.25,74752.8,-1.89,-30.77,-29.57,0,*5E
1506546380.84,63068,17.19,74750.8,-1.93,-30.83,-29.61,0,*54
1506546382.1,63069,17.19,74748.3,-1.93,-30.95,-29.73,0,*51
1506546383.32,63070,17.19,74750.5,-1.91,-31.01,-29.79,0,*5D
1506546384.57,63071,17.19,74748.0,-1.91,-30.95,-29.61,0,*59
1506546385.78,63072,17.19,74750.8,-1.93,-30.83,-29.61,0,*5F
1506546386.98,63073,17.19,74750.3,-1.93,-31.01,-29.61,0,*55
1506546388.17,63074,17.19,74750.8,-1.93,-31.01,-29.79,0,*5B
1506546389.46,63075,17.19,74748.3,-1.91,-31.11,-29.89,0,*56
1506546390.66,63076,17.19,74750.3,-1.93,-31.01,-29.79,0,*59
1506546391.89,63077,17.19,74748.5,-1.91,-30.83,-29.61,0,*58
1506546393.08,63078,17.19,74750.0,-1.93,-31.01,-29.79,0,*57
1506546394.31,63079,17.25,74752.5,-1.93,-31.17,-29.89,0,*5E
1506546395.55,63080,17.19,74750.3,-1.93,-31.17,-29.89,0,*58
1506546396.75,63081,17.19,74750.5,-1.93,-31.17,-29.95,0,*54
1506546397.98,63082,17.19,74748.3,-1.93,-31.17,-29.89,0,*5A
1506546399.21,63083,17.19,74748.3,-1.95,-31.17,-29.83,0,*57
1506546400.45,63084,17.19,74750.5,-1.95,-31.17,-29.83,0,*50
1506546401.7,63085,17.19,74748.3,-1.95,-30.89,-29.61,0,*5B
1506546402.91,63086,17.19,74748.3,-1.93,-30.83,-29.45,0,*52
1506546404.11,63087,17.19,74750.5,-1.93,-30.83,-29.45,0,*53
1506546405.32,63088,17.19,74750.3,-1.93,-30.83,-29.45,0,*5C
1506546406.57,63089,17.19,74748.5,-1.93,-30.95,-29.73,0,*5F
1506546407.86,63090,17.19,74748.5,-1.91,-31.11,-29.89,0,*5D
1506546409.1,63091,17.19,74750.3,-1.93,-31.17,-29.89,0,*58
1506546410.33,63092,17.19,74748.0,-1.93,-31.17,-29.89,0,*5B
1506546411.58,63093,17.19,74748.5,-1.97,-31.23,-30.01,0,*51
1506546412.84,63094,17.19,74748.0,-1.95,-31.29,-30.01,0,*5E
1506546414.1,63095,17.19,74748.3,-1.95,-31.23,-29.95,0,*50
1506546415.36,63096,17.19,74748.3,-1.95,-31.23,-29.95,0,*53
1506546416.59,63097,17.19,74750.5,-1.95,-31.17,-29.95,0,*55
1506546417.85,63098,17.19,74750.0,-1.95,-31.23,-29.95,0,*5D
1506546419.11,63099,17.19,74748.3,-1.97,-31.23,-30.01,0,*5B
1506546420.34,63100,17.19,74748.5,-1.97,-31.23,-29.95,0,*5F
1506546421.6,63101,17.19,74746.8,-1.95,-31.23,-29.95,0,*5C
1506546422.88,63102,17.19,74750.3,-1.95,-31.23,-30.01,0,*5A
1506546424.14,63103,17.19,74750.0,-1.95,-31.23,-29.95,0,*5E
1506546425.37,63104,17.19,74750.0,-1.95,-31.05,-29.83,0,*5A
1506546426.58,63105,17.19,74750.0,-1.97,-31.17,-29.83,0,*5A
1506546427.78,63106,17.19,74750.0,-1.97,-31.05,-29.83,0,*5A
1506546429.03,63107,17.19,74748.5,-1.95,-31.23,-29.95,0,*5A
1506546430.24,63108,17.19,74750.8,-1.97,-31.29,-29.95,0,*5D
1506546431.5,63109,17.19,74750.8,-1.99,-31.45,-30.01,0,*5D
1506546432.76,63110,17.19,74746.0,-1.99,-31.33,-30.01,0,*54
1506546434.01,63111,17.19,74750.0,-1.99,-31.29,-30.05,0,*5A
1506546435.3,63112,17.19,74750.5,-1.99,-31.11,-29.89,0,*5E
1506546436.53,63113,17.19,74750.3,-1.99,-31.05,-29.67,0,*5A
1506546437.76,63114,17.19,74750.8,-1.99,-31.05,-29.83,0,*57
1506546439.01,63115,17.19,74750.5,-1.99,-31.05,-29.73,0,*59
1506546440.24,63116,17.19,74750.5,-1.99,-31.05,-29.83,0,*55
1506546441.5,63117,17.25,74752.3,-1.99,-30.95,-29.57,0,*55
1506546442.78,63118,17.19,74746.5,-1.99,-30.89,-29.51,0,*51
1506546444.04,63119,17.19,74750.3,-1.99,-30.95,-29.57,0,*5B
1506546445.27,63120,17.19,74750.0,-1.95,-31.05,-29.83,0,*5C
1506546446.5,63121,17.19,74750.8,-1.97,-30.83,-29.51,0,*5F
1506546447.71,63122,17.19,74748.3,-1.93,-30.83,-29.45,0,*5D
1506546448.9,63123,17.19,74750.5,-1.97,-31.01,-29.79,0,*5C
1506546450.09,63124,17.25,74754.0,-1.97,-31.05,-29.79,0,*5F
1506546451.29,63125,17.19,74748.8,-1.97,-31.17,-29.83,0,*58
1506546452.52,63126,17.19,74748.0,-1.97,-30.89,-29.67,0,*57
1506546453.75,63127,17.19,74750.0,-1.97,-30.89,-29.61,0,*50
1506546454.94,63128,17.19,74746.8,-1.97,-31.17,-29.79,0,*50
1506546456.17,63129,17.19,74748.3,-1.97,-31.23,-29.95,0,*54
1506546457.43,63130,17.19,74748.5,-1.97,-31.23,-30.01,0,*59
1506546458.66,63131,17.19,74748.3,-1.97,-31.23,-29.95,0,*5D
1506546459.89,63132,17.19,74748.0,-1.97,-31.23,-29.95,0,*5E
1506546461.12,63133,17.19,74746.3,-1.97,-31.29,-30.01,0,*50
1506546462.34,63134,17.19,74748.3,-1.97,-31.39,-29.95,0,*53
1506546463.57,63135,17.19,74748.5,-1.97,-31.29,-30.01,0,*56
1506546464.83,63136,17.19,74750.0,-1.97,-31.39,-30.17,0,*53
1506546466.03,63137,17.19,74750.3,-1.97,-31.29,-29.95,0,*51
1506546467.23,63138,17.19,74748.5,-1.97,-31.17,-29.95,0,*53
1506546468.49,63139,17.19,74750.5,-1.97,-31.23,-30.01,0,*50
1506546469.75,63140,17.19,74750.3,-1.99,-31.11,-29.83,0,*53
1506546470.98,63141,17.19,74748.5,-1.99,-31.05,-29.67,0,*5D
1506546472.24,63142,17.19,74750.8,-1.99,-30.95,-29.57,0,*55
1506546473.5,63143,17.19,74750.3,-1.99,-30.95,-29.57,0,*54
1506546474.69,63144,17.19,74750.0,-1.97,-31.01,-29.61,0,*54
1506546475.95,63145,17.19,74750.5,-1.95,-31.23,-29.95,0,*5C
1506546477.17,63146,17.19,74746.8,-1.97,-31.39,-29.95,0,*56
1506546478.4,63147,17.19,74750.3,-1.99,-31.33,-30.23,0,*56
1506546479.66,63148,17.19,74750.5,-1.99,-31.33,-30.17,0,*5E
1506546480.95,63149,17.19,74748.0,-1.99,-31.23,-30.01,0,*59
1506546482.18,63150,17.19,74748.8,-1.99,-31.05,-29.67,0,*5D
1506546483.46,63151,17.19,74750.8,-1.99,-30.95,-29.73,0,*51
1506546484.72,63152,17.19,74748.0,-1.99,-31.11,-29.67,0,*5A
1506546485.93,63153,17.19,74748.5,-1.97,-31.17,-29.83,0,*59
1506546487.16,63154,17.19,74750.0,-1.99,-31.05,-29.83,0,*53
1506546488.44,63155,17.19,74748.5,-1.99,-31.11,-29.73,0,*58
1506546489.65,63156,17.19,74748.8,-1.97,-30.83,-29.67,0,*5A
1506546490.85,63157,17.19,74748.5,-1.97,-31.17,-29.83,0,*5D
1506546492.08,63158,17.19,74750.8,-1.99,-31.45,-30.23,0,*59
1506546493.35,63159,17.19,74746.0,-1.99,-31.45,-30.17,0,*5F
1506546494.61,63160,17.19,74750.0,-1.99,-31.33,-30.01,0,*53
1506546495.86,63161,17.19,74750.8,-1.99,-31.33,-30.05,0,*56
1506546497.12,63162,17.19,74750.0,-1.99,-31.33,-30.17,0,*56